FFL693 KORL-KSRQ

Flight info

Callsign FFL693
Flight time 0h 30m
Altitude 20000
Route NYTES FSHUN PLUMR CURSD
Aircraft PC12/L-SDFGRWY/S

Departure

Time 2026-04-26 17:39
Airport Orlando Executive Airport (KORL)

Arrival

Time 2026-04-26 18:09
Airport Sarasota Bradenton International Airport (KSRQ)
Time Latitude Longitude Altitude Speed Heading
2026-04-26 17:24 28.54805 -81.33801 113 ft 0 kts 228°
2026-04-26 17:34 28.54801 -81.33805 113 ft 5 kts 212°
2026-04-26 17:35 28.54723 -81.33779 111 ft 15 kts 140°
2026-04-26 17:35 28.54658 -81.33695 112 ft 20 kts 133°
2026-04-26 17:35 28.54590 -81.33607 112 ft 13 kts 130°
2026-04-26 17:35 28.54602 -81.33487 112 ft 22 kts 67°
2026-04-26 17:36 28.54658 -81.33337 112 ft 10 kts 68°
2026-04-26 17:36 28.54701 -81.33226 112 ft 23 kts 67°
2026-04-26 17:36 28.54777 -81.33023 113 ft 30 kts 67°
2026-04-26 17:36 28.54857 -81.32816 112 ft 22 kts 68°
2026-04-26 17:37 28.54924 -81.32638 112 ft 15 kts 68°
2026-04-26 17:37 28.54975 -81.32505 112 ft 25 kts 66°
2026-04-26 17:37 28.55047 -81.32311 116 ft 18 kts 77°
2026-04-26 17:38 28.55010 -81.32255 119 ft 0 kts 160°
2026-04-26 17:38 28.54988 -81.32246 117 ft 12 kts 155°
2026-04-26 17:38 28.54909 -81.32286 116 ft 20 kts 245°
2026-04-26 17:38 28.54787 -81.32607 114 ft 74 kts 246°
2026-04-26 17:39 28.54524 -81.33303 169 ft 113 kts 246°
2026-04-26 17:39 28.54137 -81.34285 408 ft 146 kts 246°
2026-04-26 17:39 28.53731 -81.35331 1164 ft 144 kts 246°
2026-04-26 17:39 28.53317 -81.36378 1874 ft 147 kts 246°
2026-04-26 17:40 28.52890 -81.37445 2546 ft 149 kts 246°
2026-04-26 17:40 28.52604 -81.38155 3014 ft 149 kts 245°
2026-04-26 17:40 28.52024 -81.39591 3943 ft 150 kts 246°
2026-04-26 17:40 28.51584 -81.40663 4673 ft 150 kts 246°
2026-04-26 17:41 28.51141 -81.41746 5355 ft 152 kts 246°
2026-04-26 17:41 28.50687 -81.42840 6039 ft 154 kts 246°
2026-04-26 17:41 28.50220 -81.43956 6655 ft 161 kts 246°
2026-04-26 17:41 28.49708 -81.45187 6974 ft 186 kts 246°
2026-04-26 17:42 28.49141 -81.46558 7521 ft 185 kts 246°
2026-04-26 17:42 28.48503 -81.47701 8601 ft 164 kts 222°
2026-04-26 17:42 28.47422 -81.48144 9329 ft 173 kts 188°
2026-04-26 17:42 28.46202 -81.48128 9985 ft 178 kts 181°
2026-04-26 17:43 28.44960 -81.48109 10615 ft 179 kts 184°
2026-04-26 17:43 28.43706 -81.48152 11251 ft 182 kts 186°
2026-04-26 17:43 28.42430 -81.48212 11912 ft 185 kts 186°
2026-04-26 17:43 28.41130 -81.48271 12561 ft 189 kts 186°
2026-04-26 17:44 28.39807 -81.48329 13216 ft 192 kts 186°
2026-04-26 17:44 28.38459 -81.48389 13870 ft 196 kts 187°
2026-04-26 17:44 28.37086 -81.48449 14437 ft 198 kts 187°
2026-04-26 17:44 28.35698 -81.48510 14998 ft 200 kts 187°
2026-04-26 17:45 28.34301 -81.48570 15573 ft 202 kts 187°
2026-04-26 17:45 28.32893 -81.48634 16163 ft 203 kts 187°
2026-04-26 17:45 28.31473 -81.48696 16743 ft 205 kts 187°
2026-04-26 17:45 28.30043 -81.48758 17325 ft 207 kts 187°
2026-04-26 17:46 28.28601 -81.48822 17918 ft 208 kts 187°
2026-04-26 17:46 28.27144 -81.48886 18458 ft 210 kts 187°
2026-04-26 17:46 28.25677 -81.48950 18941 ft 212 kts 187°
2026-04-26 17:46 28.24201 -81.49015 19447 ft 213 kts 187°
2026-04-26 17:47 28.22704 -81.49082 19858 ft 220 kts 187°
2026-04-26 17:47 28.22181 -81.49106 19933 ft 226 kts 187°
2026-04-26 17:47 28.19381 -81.49236 19983 ft 257 kts 186°
2026-04-26 17:47 28.17556 -81.49313 19981 ft 268 kts 186°
2026-04-26 17:48 28.15674 -81.49393 19979 ft 274 kts 186°
2026-04-26 17:48 28.13756 -81.49476 19974 ft 277 kts 186°
2026-04-26 17:48 28.11824 -81.49567 19971 ft 278 kts 188°
2026-04-26 17:48 28.10017 -81.50177 19956 ft 270 kts 215°
2026-04-26 17:49 28.08620 -81.51541 19960 ft 264 kts 230°
2026-04-26 17:49 28.07341 -81.53040 19967 ft 265 kts 227°
2026-04-26 17:49 28.05911 -81.54379 19970 ft 268 kts 220°
2026-04-26 17:49 28.04369 -81.55578 19971 ft 269 kts 218°
2026-04-26 17:50 28.02836 -81.56792 19932 ft 270 kts 220°
2026-04-26 17:50 28.01306 -81.58075 19654 ft 277 kts 221°
2026-04-26 17:50 27.99742 -81.59390 19298 ft 283 kts 220°
2026-04-26 17:50 27.98145 -81.60708 18923 ft 285 kts 220°
2026-04-26 17:51 27.96541 -81.62028 18531 ft 285 kts 220°
2026-04-26 17:51 27.94941 -81.63349 18143 ft 285 kts 220°
2026-04-26 17:51 27.93347 -81.64668 17747 ft 283 kts 220°
2026-04-26 17:51 27.91764 -81.65975 17369 ft 281 kts 220°
2026-04-26 17:52 27.90190 -81.67275 17002 ft 280 kts 220°
2026-04-26 17:52 27.88622 -81.68570 16634 ft 279 kts 220°
2026-04-26 17:52 27.87060 -81.69859 16265 ft 278 kts 220°
2026-04-26 17:52 27.85501 -81.71145 15901 ft 277 kts 220°
2026-04-26 17:53 27.83949 -81.72424 15532 ft 276 kts 220°
2026-04-26 17:53 27.82402 -81.73699 15175 ft 275 kts 220°
2026-04-26 17:53 27.80858 -81.74971 14812 ft 274 kts 220°
2026-04-26 17:54 27.77784 -81.77503 14091 ft 273 kts 221°
2026-04-26 17:54 27.76247 -81.78768 13730 ft 276 kts 220°
2026-04-26 17:54 27.74685 -81.80056 13335 ft 279 kts 220°
2026-04-26 17:54 27.73116 -81.81343 12961 ft 278 kts 220°
2026-04-26 17:55 27.71555 -81.82627 12596 ft 277 kts 220°
2026-04-26 17:55 27.70007 -81.83901 12234 ft 275 kts 220°
2026-04-26 17:55 27.68468 -81.85165 11875 ft 273 kts 220°
2026-04-26 17:55 27.66958 -81.86403 11519 ft 271 kts 219°
2026-04-26 17:56 27.65439 -81.87649 11164 ft 269 kts 219°
2026-04-26 17:56 27.62415 -81.90133 10479 ft 266 kts 219°
2026-04-26 17:57 27.59943 -81.92160 9909 ft 263 kts 219°
2026-04-26 17:57 27.57992 -81.93759 9413 ft 261 kts 219°
2026-04-26 17:57 27.56595 -81.95024 9062 ft 255 kts 230°
2026-04-26 17:57 27.55629 -81.96673 8635 ft 252 kts 244°
2026-04-26 17:58 27.53077 -82.01098 7330 ft 250 kts 236°
2026-04-26 17:59 27.51081 -82.04216 6700 ft 241 kts 237°
2026-04-26 17:59 27.50122 -82.05745 6460 ft 238 kts 237°
2026-04-26 17:59 27.49166 -82.07259 6215 ft 236 kts 237°
2026-04-26 17:59 27.48214 -82.08763 5966 ft 235 kts 237°
2026-04-26 18:00 27.47267 -82.10260 5717 ft 234 kts 237°
2026-04-26 18:00 27.46475 -82.11839 5465 ft 231 kts 250°
2026-04-26 18:00 27.46091 -82.13561 5220 ft 229 kts 264°
2026-04-26 18:00 27.46113 -82.15338 4974 ft 227 kts 278°
2026-04-26 18:01 27.46536 -82.17045 4741 ft 227 kts 291°
2026-04-26 18:01 27.47129 -82.18687 4491 ft 226 kts 291°
2026-04-26 18:01 27.47710 -82.20332 4247 ft 226 kts 291°
2026-04-26 18:01 27.48288 -82.21969 3998 ft 225 kts 291°
2026-04-26 18:02 27.48867 -82.23601 3746 ft 223 kts 291°
2026-04-26 18:02 27.49257 -82.24695 3586 ft 223 kts 291°
2026-04-26 18:02 27.50013 -82.26832 3265 ft 221 kts 291°
2026-04-26 18:02 27.50581 -82.28435 3021 ft 220 kts 291°
2026-04-26 18:03 27.51147 -82.30033 2781 ft 219 kts 290°
2026-04-26 18:03 27.51709 -82.31621 2533 ft 218 kts 290°
2026-04-26 18:03 27.52269 -82.33203 2288 ft 217 kts 290°
2026-04-26 18:03 27.52826 -82.34785 2046 ft 217 kts 290°
2026-04-26 18:04 27.53377 -82.36338 1987 ft 211 kts 289°
2026-04-26 18:04 27.53908 -82.37869 1984 ft 209 kts 287°
2026-04-26 18:04 27.54157 -82.39455 1982 ft 208 kts 272°
2026-04-26 18:05 27.53445 -82.42562 1982 ft 209 kts 241°
2026-04-26 18:05 27.52531 -82.43836 1982 ft 212 kts 225°
2026-04-26 18:05 27.51382 -82.44862 1986 ft 211 kts 220°
2026-04-26 18:05 27.50225 -82.45882 1988 ft 212 kts 221°
2026-04-26 18:06 27.49060 -82.46912 1992 ft 214 kts 220°
2026-04-26 18:06 27.47895 -82.47938 1872 ft 206 kts 220°
2026-04-26 18:06 27.46839 -82.48866 1690 ft 186 kts 221°
2026-04-26 18:06 27.45889 -82.49699 1461 ft 161 kts 221°
2026-04-26 18:07 27.45042 -82.50442 1269 ft 147 kts 221°
2026-04-26 18:07 27.44299 -82.51095 1074 ft 126 kts 221°
2026-04-26 18:07 27.43647 -82.51668 926 ft 111 kts 223°
2026-04-26 18:07 27.43270 -82.51999 816 ft 98 kts 221°
2026-04-26 18:08 27.42597 -82.52564 632 ft 83 kts 217°
2026-04-26 18:08 27.42087 -82.52986 537 ft 93 kts 219°
2026-04-26 18:08 27.41626 -82.53443 458 ft 88 kts 218°
2026-04-26 18:08 27.41141 -82.53871 381 ft 89 kts 217°
2026-04-26 18:09 27.40659 -82.54292 259 ft 85 kts 217°
2026-04-26 18:09 27.40208 -82.54697 101 ft 84 kts 217°
2026-04-26 18:09 27.39761 -82.55095 30 ft 76 kts 217°
2026-04-26 18:09 27.39439 -82.55379 25 ft 34 kts 218°
2026-04-26 18:10 27.39362 -82.55448 27 ft 15 kts 239°
2026-04-26 18:10 27.39446 -82.55490 26 ft 26 kts 53°
2026-04-26 18:10 27.39560 -82.55385 27 ft 15 kts 61°
2026-04-26 18:10 27.39497 -82.55282 26 ft 14 kts 134°
2026-04-26 18:11 27.39449 -82.55214 27 ft 11 kts 81°
2026-04-26 18:11 27.39508 -82.55117 27 ft 22 kts 101°
2026-04-26 18:11 27.39502 -82.54930 27 ft 14 kts 95°
2026-04-26 18:11 27.39441 -82.54875 27 ft 9 kts 181°
2026-04-26 18:12 27.39363 -82.54840 27 ft 18 kts 137°
2026-04-26 18:12 27.39382 -82.54809 27 ft 1 kts 358°